DB0TGO-14 Weather Reports


Display with metric or nautical units.
time (UTC)temp
F
wind
direction
speed
MPH
gust
MPH
rain 1hr
in
rain 24hr
in
rain mn
in
humidity
%
barometer
mb
20260506220813 50 112 3.0 5.0 0.00 1.09 0.00 92 1009.7
20260506220725 50 112 4.0 5.0 0.00 1.09 0.00 92 1009.8
20260506220628 50 0 4.0 6.0 0.00 1.09 0.00 92 1009.8
20260506220448 50 292 4.0 8.0 0.00 1.09 0.00 92 1009.7
20260506220258 50 68 4.0 8.0 0.00 1.09 0.00 92 1009.8
20260506220120 50 45 4.0 9.0 0.00 1.09 0.00 92 1009.7
20260506215925 50 22 4.0 9.0 0.00 1.09 1.09 92 1009.7
20260506215734 50 22 4.0 9.0 0.00 1.09 1.09 92 1009.7
20260506215545 50 45 3.0 6.0 0.00 1.09 1.09 92 1009.7
20260506215345 50 22 3.0 7.0 0.00 1.09 1.09 92 1009.8
20260506215200 50 22 3.0 7.0 0.00 1.09 1.09 92 1009.8
20260506215018 50 22 3.0 7.0 0.00 1.09 1.09 92 1009.9
20260506214836 50 22 3.0 7.0 0.00 1.09 1.09 92 1009.8
20260506214658 50 45 2.0 4.0 0.00 1.09 1.09 92 1009.9
20260506214507 50 22 2.0 4.0 0.00 1.09 1.09 92 1009.8
20260506214328 50 22 2.0 5.0 0.00 1.09 1.09 92 1009.8
20260506214134 50 45 2.0 6.0 0.00 1.09 1.09 92 1009.8
20260506213935 50 45 2.0 6.0 0.00 1.09 1.09 92 1009.8
20260506213758 50 22 2.0 6.0 0.00 1.09 1.09 92 1009.7
20260506213617 50 22 2.0 6.0 0.00 1.09 1.09 92 1009.7
20260506213435 50 22 3.0 6.0 0.00 1.09 1.09 92 1009.6
20260506213255 50 45 3.0 6.0 0.00 1.09 1.09 92 1009.6
20260506213108 50 22 3.0 6.0 0.00 1.09 1.09 92 1009.6
20260506212915 50 22 4.0 6.0 0.00 1.09 1.09 92 1009.6
20260506212715 50 68 3.0 8.0 0.00 1.09 1.09 92 1009.5
20260506212520 51 68 3.0 8.0 0.00 1.09 1.09 92 1009.6
20260506212345 51 22 3.0 8.0 0.00 1.09 1.09 92 1009.5
20260506212205 51 45 2.0 5.0 0.00 1.09 1.09 92 1009.6
20260506212023 51 45 2.0 5.0 0.00 1.09 1.09 92 1009.5
20260506211838 51 22 2.0 5.0 0.00 1.09 1.09 92 1009.6
20260506211643 51 22 2.0 5.0 0.00 1.09 1.09 92 1009.6
20260506211444 51 68 2.0 5.0 0.00 1.09 1.09 92 1009.5
20260506211432 51 68 2.0 5.0 0.00 1.09 1.09 92 1009.6
20260506211245 51 68 2.0 6.0 0.00 1.09 1.09 92 1009.5
20260506211045 51 0 2.0 7.0 0.00 1.09 1.09 92 1009.4
20260506210855 51 22 2.0 7.0 0.00 1.09 1.09 92 1009.5
20260506210717 51 22 3.0 7.0 0.00 1.09 1.09 92 1009.5
20260506210530 51 0 2.0 4.0 0.00 1.09 1.09 91 1009.6
20260506210330 51 45 3.0 6.0 0.00 1.09 1.09 91 1009.5
20260506210137 51 45 4.0 8.0 0.00 1.09 1.09 91 1009.4
20260506205949 51 90 4.0 8.0 0.00 1.09 1.09 91 1009.4
20260506205750 51 338 4.0 7.0 0.00 1.09 1.09 91 1009.5
20260506205555 51 45 4.0 7.0 0.00 1.09 1.09 91 1009.4
20260506205533 51 68 4.0 7.0 0.00 1.09 1.09 91 1009.4
20260506205410 51 68 4.0 7.0 0.00 1.09 1.09 91 1009.5
20260506205210 51 338 4.0 6.0 0.00 1.09 1.09 91 1009.5
20260506205021 51 45 3.0 7.0 0.00 1.09 1.09 92 1009.4
20260506204835 51 68 4.0 7.0 0.00 1.09 1.09 91 1009.3
20260506204650 51 68 4.0 7.0 0.00 1.09 1.09 92 1009.3
20260506204450 51 22 3.0 6.0 0.00 1.09 1.09 92 1009.3
20260506204255 51 68 3.0 7.0 0.00 1.09 1.09 92 1009.2
20260506204115 51 22 4.0 7.0 0.00 1.09 1.09 92 1009.2
20260506203935 51 45 4.0 7.0 0.00 1.09 1.09 93 1009.2
20260506203823 51 22 4.0 9.0 0.00 1.09 1.09 93 1009.2
20260506203745 51 68 4.0 9.0 0.00 1.09 1.09 93 1009.2
20260506203603 51 90 4.0 9.0 0.00 1.09 1.09 93 1009.2
20260506203428 51 90 5.0 9.0 0.00 1.09 1.09 93 1009.2
20260506203231 51 68 4.0 7.0 0.00 1.09 1.09 94 1009.2
20260506203050 51 68 4.0 7.0 0.00 1.09 1.09 94 1009.3
20260506202848 51 45 4.0 7.0 0.00 1.09 1.09 94 1009.3
20260506202710 51 22 4.0 7.0 0.00 1.09 1.09 94 1009.3
20260506202512 51 22 3.0 7.0 0.00 1.09 1.09 94 1009.3
20260506202335 51 22 3.0 5.0 0.00 1.09 1.09 94 1009.2
20260506202242 51 22 2.0 6.0 0.00 1.09 1.09 94 1009.4
20260506202135 51 22 3.0 6.0 0.00 1.09 1.09 94 1009.3
20260506201950 51 315 2.0 6.0 0.00 1.09 1.09 94 1009.3
20260506201756 51 45 2.0 6.0 0.00 1.09 1.09 94 1009.3
20260506201612 51 45 2.0 5.0 0.00 1.09 1.09 94 1009.4
20260506201416 51 22 2.0 4.0 0.00 1.09 1.09 94 1009.4
20260506201225 51 0 2.0 7.0 0.00 1.09 1.09 94 1009.4
20260506201045 51 0 2.0 7.0 0.00 1.09 1.09 94 1009.3
20260506200857 51 0 2.0 7.0 0.00 1.09 1.09 94 1009.3
20260506200710 51 22 1.0 5.0 0.00 1.09 1.09 94 1009.3
20260506200513 51 22 2.0 5.0 0.00 1.09 1.09 94 1009.3
20260506200338 51 22 1.0 5.0 0.00 1.09 1.09 94 1009.3
20260506200145 51 22 2.0 6.0 0.00 1.09 1.09 94 1009.3
20260506200005 51 22 2.0 6.0 0.00 1.09 1.09 94 1009.3
20260506195830 51 22 2.0 6.0 0.00 1.09 1.09 94 1009.2
20260506195638 51 22 3.0 9.0 0.00 1.09 1.09 94 1009.3
20260506195438 51 22 3.0 9.0 0.00 1.09 1.09 94 1009.2
20260506195248 51 22 3.0 9.0 0.00 1.09 1.09 94 1009.2
20260506195110 51 22 3.0 9.0 0.00 1.09 1.09 94 1009.2
20260506194915 51 22 2.0 4.0 0.00 1.09 1.09 94 1009.2
20260506194725 51 22 2.0 4.0 0.00 1.09 1.09 94 1009.2
20260506194622 51 22 2.0 5.0 0.00 1.09 1.09 94 1009.2
20260506194548 51 22 2.0 5.0 0.00 1.09 1.09 94 1009.2
20260506194355 51 22 2.0 5.0 0.00 1.09 1.09 94 1009.1
20260506194205 51 22 2.0 4.0 0.00 1.09 1.09 93 1009.1
20260506194012 51 22 2.0 4.0 0.00 1.09 1.09 93 1009.1
20260506193818 51 22 2.0 4.0 0.00 1.09 1.09 93 1009.0
20260506193635 51 22 2.0 5.0 0.00 1.09 1.09 93 1009.1
20260506193450 51 22 1.0 5.0 0.00 1.09 1.09 93 1009.2
20260506193255 51 22 1.0 5.0 0.00 1.09 1.09 93 1009.1
20260506193115 51 45 1.0 2.0 0.00 1.09 1.09 93 1009.2
20260506192938 51 45 1.0 2.0 0.00 1.09 1.09 93 1009.1
20260506192924 51 45 2.0 2.0 0.00 1.09 1.09 93 1009.2
20260506192752 51 45 2.0 2.0 0.00 1.09 1.09 92 1009.2
20260506192558 51 45 2.0 8.0 0.00 1.09 1.09 93 1009.1
20260506192416 51 45 2.0 8.0 0.00 1.09 1.09 92 1009.1
20260506192235 51 45 2.0 8.0 0.00 1.09 1.09 92 1009.1
20260506192048 51 22 2.0 6.0 0.00 1.09 1.09 93 1009.1
20260506191855 51 22 2.0 6.0 0.00 1.09 1.09 92 1009.1
20260506191718 51 68 3.0 6.0 0.00 1.09 1.09 93 1009.1
20260506191525 51 22 2.0 6.0 0.00 1.09 1.09 93 1009.1
20260506191330 51 22 2.0 6.0 0.00 1.09 1.09 92 1009.0
20260506191130 51 45 2.0 6.0 0.00 1.09 1.09 92 1009.1
20260506191041 51 68 2.0 6.0 0.00 1.09 1.09 93 1009.0
20260506190935 51 45 2.0 4.0 0.00 1.09 1.09 93 1009.0
20260506190755 51 45 2.0 4.0 0.00 1.09 1.09 93 1009.0
20260506190615 51 45 2.0 5.0 0.00 1.09 1.09 93 1009.0
20260506190435 51 45 2.0 5.0 0.00 1.09 1.09 93 1009.0
20260506190235 51 45 2.0 5.0 0.00 1.09 1.09 93 1009.0
20260506190048 51 22 1.0 5.0 0.00 1.09 1.09 92 1009.0
20260506185858 51 22 1.0 5.0 0.00 1.09 1.09 92 1008.9
20260506185719 51 22 1.0 5.0 0.00 1.09 1.09 92 1008.9
20260506185541 51 22 1.0 5.0 0.00 1.09 1.09 92 1008.9
20260506185501 51 90 1.0 2.0 0.00 1.09 1.09 92 1008.9
20260506185405 51 90 1.0 2.0 0.00 1.09 1.09 92 1008.8
20260506185218 51 112 1.0 2.0 0.00 1.09 1.09 92 1008.8
20260506185037 51 22 2.0 8.0 0.00 1.09 1.09 92 1008.8
20260506184845 51 22 2.0 8.0 0.00 1.09 1.09 92 1008.7
20260506184710 51 22 2.0 4.0 0.00 1.09 1.09 92 1008.6
20260506184513 51 22 2.0 6.0 0.00 1.09 1.09 92 1008.6
20260506184325 51 68 2.0 6.0 0.00 1.09 1.09 93 1008.6
20260506184143 51 68 2.0 6.0 0.00 1.09 1.09 92 1008.5
20260506183955 51 22 2.0 4.0 0.00 1.09 1.09 92 1008.5
20260506183758 52 0 3.0 5.0 0.00 1.09 1.09 93 1008.5
20260506183637 52 45 3.0 5.0 0.00 1.09 1.09 92 1008.4
20260506183610 52 45 3.0 5.0 0.00 1.09 1.09 92 1008.3
20260506183425 52 68 3.0 6.0 0.00 1.09 1.09 92 1008.3
20260506183238 52 22 3.0 6.0 0.00 1.09 1.09 92 1008.3
20260506183055 52 45 3.0 6.0 0.00 1.09 1.09 92 1008.3
20260506182915 52 68 2.0 5.0 0.00 1.09 1.09 92 1008.4
20260506182738 52 22 2.0 4.0 0.00 1.09 1.09 92 1008.4
20260506182558 52 22 2.0 5.0 0.00 1.09 1.09 92 1008.4
20260506182405 52 45 2.0 6.0 0.00 1.09 1.09 91 1008.4
20260506182205 52 68 2.0 6.0 0.00 1.09 1.09 91 1008.4
20260506182010 52 45 2.0 6.0 0.00 1.09 1.09 91 1008.4
20260506181911 52 45 2.0 7.0 0.00 1.09 1.09 91 1008.3
20260506181815 53 68 2.0 7.0 0.00 1.09 1.09 90 1008.4
20260506181634 53 68 2.0 7.0 0.00 1.09 1.09 90 1008.5
20260506181448 53 0 2.0 5.0 0.00 1.09 1.09 90 1008.5
20260506181305 53 45 2.0 5.0 0.00 1.09 1.09 90 1008.5
20260506181125 53 45 2.0 5.0 0.00 1.09 1.09 91 1008.5
20260506180938 53 45 2.0 6.0 0.00 1.09 1.09 91 1008.5
20260506180755 53 45 2.0 6.0 0.00 1.09 1.09 91 1008.5
20260506180607 53 45 2.0 7.0 0.00 1.09 1.09 91 1008.5
20260506180415 53 68 3.0 7.0 0.00 1.09 1.09 91 1008.4
20260506180232 53 68 3.0 8.0 0.00 1.09 1.09 91 1008.3
20260506180035 53 45 3.0 8.0 0.00 1.09 1.09 92 1008.3
20260506175855 53 68 3.0 8.0 0.00 1.09 1.09 92 1008.4
20260506175712 53 338 3.0 7.0 0.00 1.09 1.09 92 1008.4
20260506175535 53 0 3.0 7.0 0.00 1.09 1.09 92 1008.4
20260506175345 53 0 4.0 7.0 0.00 1.09 1.09 91 1008.4
20260506175148 53 45 4.0 8.0 0.00 1.09 1.09 91 1008.3
20260506174958 53 112 4.0 8.0 0.00 1.09 1.09 92 1008.3
20260506174807 53 22 4.0 8.0 0.00 1.09 1.09 91 1008.2
20260506174625 53 22 4.0 6.0 0.00 1.09 1.09 91 1008.1
20260506174430 53 45 3.0 6.0 0.00 1.09 1.09 91 1008.2
20260506174250 53 22 3.0 5.0 0.00 1.09 1.09 91 1008.1
20260506174100 53 68 3.0 5.0 0.00 1.09 1.09 91 1008.1
20260506173924 54 22 2.0 5.0 0.00 1.09 1.09 91 1008.1
20260506173728 54 45 3.0 6.0 0.00 1.09 1.09 91 1008.1
20260506173550 54 45 3.0 6.0 0.00 1.09 1.09 91 1008.1
20260506173405 54 68 3.0 6.0 0.00 1.09 1.09 91 1008.1
20260506173218 54 45 3.0 6.0 0.00 1.09 1.09 91 1008.1
20260506173036 54 22 3.0 6.0 0.00 1.09 1.09 91 1008.0
20260506172855 54 68 4.0 6.0 0.00 1.09 1.09 91 1008.0
20260506172713 54 45 3.0 7.0 0.00 1.09 1.09 91 1007.9
20260506172534 54 45 3.0 7.0 0.00 1.09 1.09 91 1008.0
20260506172335 54 22 3.0 9.0 0.00 1.09 1.09 91 1008.0
20260506172145 54 68 3.0 9.0 0.00 1.09 1.09 92 1008.0
20260506172010 54 22 3.0 9.0 0.00 1.09 1.09 91 1008.0
20260506171820 54 45 3.0 5.0 0.00 1.09 1.09 91 1008.0
20260506171643 54 45 3.0 6.0 0.00 1.09 1.09 92 1008.0
20260506171505 54 0 3.0 6.0 0.00 1.09 1.09 92 1008.0
20260506171342 54 112 3.0 6.0 0.00 1.09 1.09 92 1008.0
20260506171324 54 22 3.0 6.0 0.00 1.09 1.09 92 1007.9
20260506171127 54 45 3.0 6.0 0.00 1.09 1.09 92 1008.0
20260506170938 54 68 2.0 5.0 0.00 1.09 1.09 91 1008.0
20260506170738 55 45 2.0 5.0 0.00 1.09 1.09 91 1008.0
20260506170555 55 22 2.0 5.0 0.00 1.09 1.09 91 1008.0
20260506170415 55 45 2.0 5.0 0.00 1.09 1.09 91 1007.9
20260506170218 55 45 2.0 5.0 0.00 1.09 1.09 91 1008.0
20260506170035 55 45 2.0 5.0 0.00 1.09 1.09 91 1008.0
20260506165850 55 22 2.0 4.0 0.00 1.09 1.09 91 1008.0
20260506165822 55 22 2.0 6.0 0.00 1.09 1.09 91 1007.9
20260506165710 55 90 2.0 6.0 0.00 1.09 1.09 91 1008.0
20260506165523 55 68 2.0 6.0 0.00 1.09 1.09 92 1007.9
20260506165325 55 68 2.0 6.0 0.00 1.09 1.09 91 1007.9
20260506165138 55 22 2.0 5.0 0.00 1.09 1.09 91 1007.9
20260506164938 55 45 2.0 8.0 0.00 1.09 1.09 91 1007.9
20260506164753 55 22 3.0 8.0 0.00 1.09 1.09 91 1007.8
20260506164605 56 45 3.0 6.0 0.00 1.09 1.09 90 1007.8
20260506164415 56 45 2.0 6.0 0.00 1.09 1.09 90 1007.9
20260506164213 56 45 2.0 6.0 0.00 1.09 1.09 90 1007.8
20260506164038 56 45 2.0 8.0 0.00 1.09 1.09 89 1007.9
20260506163958 56 68 2.0 8.0 0.00 1.09 1.09 89 1007.8
20260506163838 56 22 2.0 8.0 0.00 1.09 1.09 89 1007.8
20260506163645 56 45 2.0 8.0 0.00 1.09 1.09 88 1007.8
20260506163505 56 45 2.0 4.0 0.00 1.09 1.09 89 1007.7
20260506163325 56 22 2.0 5.0 0.00 1.09 1.09 89 1007.7
20260506163125 56 22 2.0 5.0 0.00 1.09 1.09 89 1007.8
20260506162945 56 22 2.0 5.0 0.00 1.09 1.09 88 1007.7
20260506162745 56 45 2.0 5.0 0.00 1.09 1.09 88 1007.8
20260506162605 56 22 2.0 5.0 0.00 1.09 1.09 89 1007.7
20260506162407 56 45 2.0 5.0 0.00 1.09 1.09 89 1007.7
20260506162210 56 22 2.0 5.0 0.00 1.09 1.09 89 1007.8
20260506162023 56 22 2.0 5.0 0.00 1.09 1.09 89 1007.7
20260506161830 56 22 2.0 5.0 0.00 1.09 1.09 88 1007.7
20260506161630 56 22 2.0 5.0 0.00 1.09 1.09 87 1007.7
20260506161435 56 22 2.0 7.0 0.00 1.09 1.09 87 1007.8
20260506161105 56 68 2.0 7.0 0.00 1.09 1.09 87 1007.9
20260506160903 56 68 2.0 5.0 0.00 1.09 1.09 87 1008.0
20260506160704 56 22 3.0 6.0 0.00 1.09 1.09 87 1007.9
20260506160611 56 22 3.0 6.0 0.00 1.09 1.09 87 1008.0
20260506160518 56 22 3.0 6.0 0.00 1.09 1.09 86 1007.9
20260506160326 56 90 3.0 7.0 0.00 1.09 1.09 86 1007.9
20260506160140 57 68 3.0 7.0 0.00 1.09 1.09 87 1007.9
20260506155955 57 22 3.0 8.0 0.00 1.09 1.09 87 1008.0
20260506155800 56 0 3.0 8.0 0.00 1.09 1.09 87 1008.0
20260506155612 56 45 2.0 7.0 0.00 1.09 1.09 87 1008.0
20260506155427 56 22 2.0 6.0 0.00 1.09 1.09 87 1008.0
20260506155245 56 45 3.0 6.0 0.00 1.09 1.09 88 1008.0
20260506155050 56 45 3.0 6.0 0.00 1.09 1.09 88 1008.0
20260506154901 56 338 3.0 5.0 0.00 1.09 1.09 88 1008.1
20260506154744 56 22 2.0 5.0 0.00 1.09 1.09 88 1008.0
20260506154713 56 22 2.0 5.0 0.00 1.09 1.09 89 1008.1
20260506154535 56 22 3.0 7.0 0.00 1.09 1.09 89 1008.1
20260506154335 56 22 3.0 7.0 0.00 1.09 1.09 89 1008.0
20260506154145 57 68 3.0 7.0 0.00 1.09 1.09 89 1008.0
20260506154008 57 45 2.0 6.0 0.00 1.09 1.09 90 1008.0
20260506153830 57 68 2.0 6.0 0.00 1.09 1.09 89 1008.0
20260506153650 57 22 2.0 7.0 0.00 1.09 1.09 88 1008.0
20260506153458 57 45 2.0 7.0 0.00 1.09 1.09 88 1007.9
20260506153310 57 0 1.0 4.0 0.00 1.09 1.09 88 1008.1
20260506153125 57 270 1.0 2.0 0.00 1.09 1.09 88 1008.1
20260506152929 57 68 2.0 2.0 0.00 1.09 1.09 87 1008.0
20260506152900 56 68 2.0 2.0 0.00 1.09 1.09 88 1008.0
20260506152737 56 90 2.0 5.0 0.00 1.09 1.09 88 1008.0
20260506152541 56 90 2.0 5.0 0.00 1.09 1.09 89 1008.0
20260506152343 56 90 3.0 6.0 0.00 1.09 1.09 89 1007.9
20260506152201 56 68 3.0 6.0 0.00 1.09 1.09 89 1008.0
20260506152024 56 90 2.0 6.0 0.00 1.09 1.09 89 1007.9
20260506151848 56 22 2.0 4.0 0.00 1.09 1.09 90 1008.0
20260506151710 56 45 2.0 5.0 0.00 1.09 1.09 90 1008.0
20260506151513 56 22 2.0 5.0 0.00 1.09 1.09 89 1007.9
20260506151336 56 45 2.0 5.0 0.00 1.09 1.09 89 1008.0
20260506151141 56 22 2.0 5.0 0.00 1.09 1.09 91 1008.0
20260506151017 56 22 3.0 5.0 0.00 1.09 1.09 91 1008.1
20260506150839 56 22 3.0 5.0 0.00 1.09 1.09 90 1008.1
20260506150700 56 22 3.0 5.0 0.00 1.09 1.09 90 1008.0
20260506150510 55 22 4.0 6.0 0.00 1.09 1.09 90 1007.9
20260506150330 55 22 4.0 7.0 0.00 1.09 1.09 91 1007.9
20260506150155 55 22 4.0 7.0 0.00 1.09 1.09 91 1007.9
20260506150015 56 22 4.0 7.0 0.00 1.09 1.09 91 1007.8
20260506145818 56 22 4.0 6.0 0.00 1.09 1.09 91 1007.9
20260506145639 56 45 4.0 6.0 0.00 1.09 1.09 91 1007.8
20260506145554 56 68 4.0 6.0 0.00 1.09 1.09 91 1007.8
20260506145445 56 0 4.0 6.0 0.00 1.09 1.09 91 1007.9
20260506145306 56 22 4.0 6.0 0.00 1.09 1.09 92 1007.9
20260506145120 56 22 4.0 7.0 0.00 1.09 1.09 92 1007.9
20260506144930 56 90 4.0 7.0 0.00 1.09 1.09 91 1007.9
20260506144750 56 22 3.0 7.0 0.00 1.09 1.09 91 1007.9
20260506144558 56 68 3.0 5.0 0.00 1.09 1.09 91 1007.8
20260506144415 56 22 2.0 6.0 0.00 1.09 1.09 91 1007.8
20260506144229 56 68 3.0 6.0 0.00 1.09 1.09 91 1007.9
20260506144043 56 68 2.0 6.0 0.00 1.09 1.09 91 1007.8
20260506143917 56 45 3.0 5.0 0.00 1.09 1.09 90 1007.8
20260506143850 57 45 2.0 5.0 0.00 1.09 1.09 89 1007.8
20260506143650 57 22 2.0 5.0 0.00 1.09 1.09 90 1007.9
20260506143509 57 45 3.0 5.0 0.00 1.09 1.09 90 1007.8
20260506143318 57 45 3.0 7.0 0.00 1.09 1.09 89 1007.8
20260506143135 57 68 3.0 7.0 0.00 1.09 1.09 90 1007.8
20260506142955 57 90 3.0 7.0 0.00 1.09 1.09 89 1007.8
20260506142758 56 68 2.0 5.0 0.00 1.09 1.09 89 1007.8
20260506142618 56 22 2.0 5.0 0.00 1.09 1.09 89 1007.8
20260506142425 56 45 2.0 5.0 0.00 1.09 1.09 90 1007.9
20260506142235 56 22 2.0 5.0 0.00 1.09 1.09 91 1007.8
20260506142204 56 90 1.0 2.0 0.00 1.09 1.09 92 1007.8
20260506142040 56 90 2.0 6.0 0.00 1.09 1.09 92 1007.8
20260506141845 56 90 2.0 6.0 0.00 1.09 1.09 92 1007.9
20260506141705 56 90 2.0 6.0 0.00 1.09 1.09 92 1007.8
20260506141523 56 68 2.0 5.0 0.00 1.09 1.09 92 1007.9
20260506141345 56 45 2.0 5.0 0.00 1.09 1.09 92 1007.9
20260506141155 56 45 2.0 5.0 0.00 1.09 1.09 92 1007.9
20260506140958 56 22 2.0 4.0 0.00 1.09 1.09 93 1008.0
20260506140805 56 22 2.0 5.0 0.00 1.09 1.09 93 1007.9
20260506140616 56 45 2.0 5.0 0.00 1.09 1.09 93 1007.9
20260506140438 56 45 2.0 5.0 0.00 1.09 1.09 92 1008.0
20260506140238 56 22 2.0 6.0 0.00 1.09 1.09 93 1008.0
20260506140038 55 22 2.0 6.0 0.00 1.09 1.09 94 1008.0
20260506135844 55 22 2.0 4.0 0.00 1.09 1.09 94 1007.9
20260506135650 55 22 3.0 5.0 0.00 1.09 1.09 94 1007.9
20260506135501 55 22 3.0 5.0 0.00 1.09 1.09 94 1007.9
20260506135306 55 45 3.0 5.0 0.00 1.09 1.09 94 1007.8
20260506135125 55 68 2.0 5.0 0.00 1.09 1.09 95 1007.9
20260506134931 55 45 2.0 5.0 0.00 1.09 1.09 95 1007.8
20260506134757 54 68 2.0 5.0 0.00 1.09 1.09 95 1007.8
20260506134733 54 338 2.0 5.0 0.00 1.09 1.09 95 1007.8
20260506134535 54 22 2.0 4.0 0.00 1.09 1.09 96 1007.9
20260506134340 54 22 2.0 4.0 0.00 1.09 1.09 96 1007.9
20260506134150 54 45 3.0 5.0 0.00 1.09 1.09 96 1007.8
20260506133955 54 45 3.0 5.0 0.00 1.09 1.09 96 1007.8
20260506133805 54 45 3.0 5.0 0.00 1.09 1.09 96 1007.8
20260506133625 54 45 4.0 6.0 0.00 1.09 1.09 96 1007.7
20260506133426 54 22 4.0 6.0 0.00 1.09 1.09 96 1007.8
20260506133251 54 22 4.0 6.0 0.00 1.09 1.09 96 1007.7
20260506133213 54 22 4.0 6.0 0.00 1.09 1.09 96 1007.7
20260506133105 54 45 4.0 5.0 0.00 1.09 1.09 96 1007.8
20260506132909 54 45 4.0 7.0 0.00 1.09 1.09 96 1007.7
20260506132732 54 22 3.0 7.0 0.00 1.09 1.09 96 1007.7
20260506132545 54 45 3.0 7.0 0.00 1.09 1.09 96 1007.7
20260506132400 54 45 2.0 6.0 0.00 1.09 1.09 97 1007.8
20260506132218 54 338 2.0 6.0 0.00 1.09 1.09 97 1007.7
20260506132030 54 22 2.0 5.0 0.00 1.09 1.09 97 1007.8
20260506131835 54 45 1.0 5.0 0.00 1.09 1.09 97 1007.7
20260506131635 54 45 1.0 5.0 0.00 1.09 1.09 97 1007.8
20260506131536 54 45 2.0 5.0 0.00 1.09 1.09 97 1007.7
20260506131440 54 45 2.0 5.0 0.00 1.09 1.09 97 1007.7
20260506131250 54 45 1.0 5.0 0.00 1.09 1.09 97 1007.7
20260506131100 54 45 1.0 5.0 0.00 1.09 1.09 97 1007.8
20260506130910 54 68 2.0 5.0 0.00 1.09 1.09 97 1007.7
20260506130715 54 68 1.0 5.0 0.00 1.09 1.09 97 1007.7
20260506130515 54 45 1.0 5.0 0.00 1.09 1.09 97 1007.8
20260506130318 54 68 0.0 5.0 0.00 1.09 1.09 97 1007.8
20260506130130 54 68 0.0 5.0 0.00 1.09 1.09 97 1007.8
20260506125950 54 68 1.0 5.0 0.00 1.09 1.09 97 1007.8
20260506125803 54 45 0.0 2.0 0.00 1.09 1.09 97 1007.8
20260506125701 54 22 1.0 2.0 0.00 1.09 1.09 97 1007.8
20260506125627 54 22 1.0 2.0 0.00 1.09 1.09 97 1007.8
20260506125435 54 22 1.0 2.0 0.00 1.09 1.09 97 1007.8
20260506125300 54 22 1.0 4.0 0.00 1.09 1.09 97 1007.9
20260506125118 54 22 1.0 4.0 0.00 1.09 1.09 97 1007.8
20260506124934 54 22 1.0 4.0 0.00 1.09 1.09 97 1007.8
20260506124745 54 22 1.0 4.0 0.00 1.09 1.09 98 1007.8
20260506124600 54 22 2.0 4.0 0.00 1.09 1.09 97 1007.9
20260506124412 54 90 2.0 5.0 0.00 1.09 1.09 98 1007.8
20260506124215 54 90 2.0 5.0 0.00 1.09 1.09 98 1007.9
20260506124122 54 68 2.0 5.0 0.00 1.09 1.09 98 1007.9
20260506124015 54 68 2.0 5.0 0.00 1.09 1.09 97 1007.8
20260506123830 54 45 2.0 5.0 0.00 1.09 1.09 98 1007.8
20260506123635 54 338 2.0 5.0 0.00 1.09 1.09 98 1007.7
20260506123450 53 45 2.0 4.0 0.00 1.09 1.09 98 1007.8
20260506123255 54 45 1.0 5.0 0.00 1.09 1.09 98 1007.7
20260506123115 54 45 2.0 5.0 0.00 1.09 1.09 98 1007.7
20260506122935 54 68 2.0 5.0 0.00 1.09 1.09 97 1007.7
20260506122750 54 22 1.0 5.0 0.02 1.09 1.09 98 1007.7
20260506122554 54 45 1.0 6.0 0.02 1.09 1.09 98 1007.7
20260506122429 54 68 1.0 6.0 0.02 1.09 1.09 97 1007.7
20260506122245 54 45 1.0 6.0 0.02 1.09 1.09 97 1007.6
20260506122050 54 22 1.0 3.0 0.02 1.09 1.09 98 1007.7
20260506121915 54 22 1.0 3.0 0.02 1.09 1.09 98 1007.7
20260506121718 54 22 1.0 3.0 0.02 1.09 1.09 98 1007.7
20260506121537 53 22 2.0 4.0 0.02 1.09 1.09 98 1007.6
20260506121345 53 22 2.0 4.0 0.02 1.09 1.09 98 1007.7
20260506121145 53 68 2.0 5.0 0.02 1.09 1.09 98 1007.7
20260506120946 53 22 2.0 8.0 0.02 1.09 1.09 98 1007.7
20260506120755 53 0 2.0 8.0 0.02 1.09 1.09 98 1007.7
20260506120558 53 22 2.0 8.0 0.02 1.09 1.09 97 1007.7
20260506120358 53 22 1.0 4.0 0.02 1.09 1.09 98 1007.7
20260506120158 53 22 1.0 2.0 0.02 1.09 1.09 98 1007.7
20260506120020 53 22 2.0 2.0 0.02 1.09 1.09 98 1007.6
20260506115837 53 22 2.0 0.0 0.02 1.09 1.09 98 1007.6
20260506115645 53 22 2.0 7.0 0.02 1.09 1.09 98 1007.6
20260506115449 53 22 2.0 7.0 0.02 1.09 1.09 98 1007.5
20260506115307 53 22 2.0 7.0 0.02 1.09 1.09 98 1007.6
20260506115125 53 22 2.0 5.0 0.02 1.09 1.09 98 1007.5
20260506114930 53 45 2.0 5.0 0.02 1.09 1.09 98 1007.5
20260506114730 53 45 2.0 5.0 0.02 1.09 1.09 98 1007.5
20260506114540 53 45 3.0 6.0 0.02 1.09 1.09 98 1007.5
20260506114350 53 22 3.0 6.0 0.02 1.09 1.09 98 1007.4
20260506114155 53 45 3.0 6.0 0.02 1.09 1.09 98 1007.4
20260506113958 53 45 2.0 8.0 0.02 1.09 1.09 98 1007.4
20260506113811 53 45 2.0 8.0 0.02 1.09 1.09 98 1007.3
20260506113621 53 0 2.0 8.0 0.02 1.09 1.09 98 1007.3
20260506113424 54 22 2.0 5.0 0.02 1.09 1.09 98 1007.3
20260506113230 54 0 1.0 5.0 0.02 1.09 1.09 98 1007.3
20260506113038 54 338 1.0 3.0 0.02 1.09 1.09 98 1007.3
20260506112840 54 292 1.0 3.0 0.02 1.09 1.09 98 1007.3
20260506112653 54 315 1.0 3.0 0.02 1.09 1.09 98 1007.3
20260506112458 54 22 1.0 3.0 0.02 1.09 1.09 98 1007.3
20260506112258 54 22 0.0 2.0 0.00 1.07 1.07 98 1007.3
20260506112105 54 0 0.0 2.0 0.00 1.07 1.07 98 1007.2
20260506111920 54 0 0.0 4.0 0.00 1.07 1.07 98 1007.2
20260506111735 54 0 0.0 4.0 0.00 1.07 1.07 98 1007.3
20260506111555 54 0 0.0 4.0 0.00 1.07 1.07 98 1007.2
20260506111410 54 315 0.0 1.0 0.00 1.07 1.07 98 1007.2
20260506111236 54 315 0.0 1.0 0.00 1.07 1.07 98 1007.2
20260506111210 54 315 0.0 1.0 0.00 1.07 1.07 98 1007.2
20260506111030 54 22 1.0 2.0 0.00 1.07 1.07 98 1007.2
20260506110835 54 22 1.0 2.0 0.00 1.07 1.07 98 1007.2
20260506110650 54 292 1.0 2.0 0.00 1.07 1.07 98 1007.2
20260506110505 54 338 1.0 3.0 0.00 1.07 1.07 98 1007.3
20260506110325 54 45 1.0 3.0 0.00 1.07 1.07 98 1007.2
20260506110135 54 22 1.0 3.0 0.00 1.07 1.07 98 1007.2
20260506105958 54 0 1.0 2.0 0.00 1.07 1.07 98 1007.0
20260506105815 54 0 1.0 5.0 0.00 1.07 1.07 98 1007.1
20260506105615 54 0 2.0 5.0 0.00 1.07 1.07 98 1007.1
20260506105545 54 0 2.0 5.0 0.00 1.07 1.07 98 1007.1
20260506105415 54 0 1.0 5.0 0.00 1.07 1.07 98 1007.0
20260506105230 53 338 1.0 4.0 0.00 1.07 1.07 98 1007.1
20260506105050 53 338 1.0 2.0 0.00 1.07 1.07 98 1007.0
20260506104850 53 292 2.0 2.0 0.00 1.07 1.07 98 1007.1
20260506104710 53 270 1.0 2.0 0.00 1.07 1.07 98 1007.0
20260506104514 53 45 2.0 4.0 0.00 1.07 1.07 98 1007.1
20260506104318 53 22 2.0 5.0 0.00 1.07 1.07 98 1007.0
20260506104120 53 22 2.0 5.0 0.00 1.07 1.07 98 1007.0
20260506104021 53 22 2.0 5.0 0.02 1.07 1.07 98 1007.0
20260506103943 53 22 2.0 5.0 0.02 1.07 1.07 98 1007.0
20260506103745 53 45 2.0 5.0 0.02 1.07 1.07 98 1007.0
20260506103550 53 292 1.0 4.0 0.02 1.07 1.07 98 1006.9
20260506103358 53 292 2.0 4.0 0.02 1.07 1.07 98 1006.9
20260506103159 53 22 2.0 4.0 0.02 1.07 1.07 98 1007.0
20260506103010 53 45 2.0 6.0 0.02 1.07 1.07 98 1006.9
20260506102825 53 0 2.0 6.0 0.02 1.07 1.07 98 1006.9
20260506102638 53 0 2.0 6.0 0.02 1.07 1.07 98 1006.9
20260506102449 53 45 2.0 5.0 0.02 1.07 1.07 98 1006.8
20260506102310 53 45 2.0 5.0 0.02 1.07 1.07 98 1006.8
20260506102108 53 22 2.0 5.0 0.02 1.07 1.07 98 1006.8
20260506101918 53 338 2.0 3.0 0.02 1.07 1.07 98 1006.8
20260506101735 53 338 2.0 8.0 0.02 1.07 1.07 98 1006.9
20260506101554 53 45 2.0 8.0 0.02 1.07 1.07 98 1006.8
20260506101358 53 22 2.0 8.0 0.02 1.07 1.07 98 1006.8
20260506101205 53 45 2.0 5.0 0.02 1.07 1.07 99 1006.7
20260506101021 53 45 2.0 5.0 0.02 1.07 1.07 99 1006.8
20260506100932 53 45 2.0 5.0 0.02 1.07 1.07 99 1006.7
20260506100841 53 45 2.0 5.0 0.02 1.07 1.07 98 1006.7
20260506100645 53 270 1.0 2.0 0.02 1.07 1.07 99 1006.7
20260506100457 53 0 1.0 5.0 0.02 1.07 1.07 98 1006.7
20260506100315 53 45 2.0 5.0 0.02 1.07 1.07 99 1006.6
20260506100125 53 45 2.0 5.0 0.02 1.07 1.07 98 1006.7
20260506095945 53 22 2.0 6.0 0.02 1.07 1.07 99 1006.7
20260506095800 53 22 3.0 6.0 0.03 1.07 1.07 98 1006.6
20260506095605 53 22 4.0 6.0 0.03 1.07 1.07 98 1006.6
20260506095415 53 22 4.0 7.0 0.03 1.07 1.07 98 1006.5
20260506095228 53 45 3.0 7.0 0.03 1.07 1.07 98 1006.6
20260506095105 53 68 3.0 7.0 0.03 1.07 1.07 98 1006.5
20260506095035 53 22 3.0 7.0 0.03 1.07 1.07 98 1006.5
20260506094856 53 22 3.0 7.0 0.03 1.07 1.07 98 1006.5
20260506094700 53 338 3.0 5.0 0.05 1.07 1.07 98 1006.5
20260506094505 53 22 2.0 7.0 0.05 1.07 1.07 99 1006.5
20260506094325 53 0 3.0 7.0 0.05 1.07 1.07 99 1006.5
20260506094129 53 22 3.0 7.0 0.05 1.07 1.07 98 1006.5
20260506093935 53 22 3.0 6.0 0.05 1.07 1.07 99 1006.5
20260506093745 52 22 3.0 5.0 0.05 1.07 1.07 99 1006.4
20260506093600 52 22 2.0 6.0 0.05 1.06 1.06 99 1006.4
20260506093410 52 22 3.0 6.0 0.05 1.06 1.06 98 1006.4
20260506093220 52 248 2.0 6.0 0.05 1.06 1.06 98 1006.4
20260506093025 52 22 3.0 4.0 0.05 1.06 1.06 99 1006.4
20260506092836 52 45 3.0 5.0 0.05 1.06 1.06 99 1006.4
20260506092658 52 45 2.0 6.0 0.06 1.06 1.06 99 1006.4
20260506092506 52 22 3.0 9.0 0.06 1.06 1.06 99 1006.4
20260506092328 52 45 3.0 9.0 0.06 1.06 1.06 99 1006.4
20260506092130 52 45 2.0 9.0 0.08 1.06 1.06 99 1006.4
20260506091938 52 22 2.0 5.0 0.08 1.06 1.06 99 1006.3
20260506091740 52 45 3.0 5.0 0.08 1.06 1.06 99 1006.3
20260506091550 52 45 4.0 8.0 0.08 1.06 1.06 99 1006.3
20260506091457 52 45 4.0 8.0 0.08 1.06 1.06 99 1006.2
20260506091410 53 22 4.0 9.0 0.08 1.06 1.06 99 1006.3
20260506091215 53 22 4.0 9.0 0.08 1.06 1.06 99 1006.3
20260506091024 53 22 3.0 9.0 0.09 1.06 1.06 99 1006.3
20260506090842 53 22 3.0 9.0 0.09 1.06 1.06 99 1006.3
20260506090700 53 292 2.0 5.0 0.09 1.06 1.06 99 1006.2
20260506090515 53 22 2.0 5.0 0.11 1.06 1.06 99 1006.2
20260506090335 52 22 2.0 2.0 0.11 1.06 1.06 99 1006.2
20260506090142 52 45 2.0 4.0 0.11 1.06 1.06 99 1006.2
20260506085945 52 22 2.0 6.0 0.13 1.06 1.06 99 1006.2
20260506085805 52 22 2.0 6.0 0.13 1.06 1.06 99 1006.2
20260506085615 52 22 3.0 7.0 0.13 1.06 1.06 99 1006.2
20260506085602 52 315 3.0 7.0 0.13 1.06 1.06 99 1006.2
20260506085415 52 45 4.0 7.0 0.13 1.04 1.04 99 1006.1
20260506085215 52 22 4.0 8.0 0.13 1.04 1.04 99 1006.2
20260506085025 52 292 3.0 8.0 0.13 1.04 1.04 99 1006.2
20260506084850 52 45 4.0 8.0 0.14 1.04 1.04 99 1006.1
20260506084653 52 22 3.0 7.0 0.14 1.04 1.04 99 1006.1
20260506084454 52 22 2.0 8.0 0.14 1.04 1.04 99 1006.1
20260506084310 52 22 2.0 9.0 0.13 1.02 1.02 99 1006.1
20260506084110 52 22 2.0 9.0 0.13 1.02 1.02 99 1006.1
20260506083920 52 22 2.0 9.0 0.13 1.02 1.02 99 1006.2
20260506083735 52 45 2.0 5.0 0.14 1.02 1.02 99 1006.1
20260506083715 52 22 2.0 5.0 0.14 1.02 1.02 99 1006.0
20260506083555 52 22 2.0 5.0 0.14 1.02 1.02 99 1006.0
20260506083418 52 22 2.0 5.0 0.14 1.02 1.02 99 1006.1
20260506083240 52 270 2.0 5.0 0.14 1.01 1.01 99 1006.0
20260506083058 52 0 2.0 5.0 0.14 1.01 1.01 99 1006.1
20260506082904 52 22 2.0 6.0 0.14 1.01 1.01 99 1006.1
20260506082715 52 22 1.0 5.0 0.17 1.01 1.01 99 1006.0
20260506082519 52 22 1.0 5.0 0.17 1.01 1.01 99 1006.0
20260506082325 52 22 1.0 0.0 0.17 1.01 1.01 99 1006.0
20260506082140 51 22 1.0 4.0 0.17 0.99 0.99 99 1006.0
20260506082031 51 22 1.0 4.0 0.17 0.99 0.99 99 1006.0
20260506081950 51 22 2.0 4.0 0.17 0.99 0.99 99 1005.9
20260506081755 51 22 2.0 5.0 0.17 0.99 0.99 99 1006.0
20260506081615 51 22 2.0 5.0 0.19 0.98 0.98 99 1005.9
20260506081430 51 22 2.0 5.0 0.19 0.98 0.98 99 1006.0
20260506081235 51 68 2.0 5.0 0.19 0.98 0.98 99 1006.0
20260506081100 51 68 2.0 5.0 0.24 0.98 0.98 99 1006.0
20260506080910 51 315 2.0 4.0 0.24 0.98 0.98 99 1006.0
20260506080715 51 225 2.0 5.0 0.24 0.98 0.98 99 1006.0
20260506080535 51 45 3.0 6.0 0.24 0.96 0.96 99 1005.9
20260506080350 51 45 3.0 6.0 0.24 0.96 0.96 99 1006.0
20260506080315 51 68 3.0 6.0 0.24 0.96 0.96 99 1005.9
20260506080150 51 22 3.0 7.0 0.24 0.96 0.96 99 1005.9
20260506073427 51 22 3.0 8.0 0.31 0.88 0.88 99 1005.7
20260506073250 51 0 3.0 8.0 0.31 0.88 0.88 99 1005.7
20260506073110 51 22 2.0 5.0 0.31 0.88 0.88 99 1005.8
20260506072920 51 45 2.0 5.0 0.31 0.87 0.87 99 1005.7
20260506072725 51 90 2.0 5.0 0.31 0.87 0.87 99 1005.8
20260506072707 51 90 2.0 5.0 0.31 0.87 0.87 99 1005.8
20260506072545 51 22 2.0 5.0 0.31 0.87 0.87 99 1005.8
20260506072400 51 22 2.0 5.0 0.33 0.83 0.83 99 1005.8
20260506072213 51 292 2.0 5.0 0.33 0.83 0.83 99 1005.7
20260506072015 51 338 1.0 5.0 0.33 0.83 0.83 99 1005.8
20260506071820 51 22 1.0 5.0 0.33 0.82 0.82 99 1005.8
20260506071630 51 22 1.0 5.0 0.33 0.82 0.82 99 1005.8
20260506071428 51 22 1.0 4.0 0.33 0.82 0.82 99 1005.8
20260506071238 51 22 1.0 4.0 0.30 0.79 0.79 99 1005.8
20260506071055 51 22 0.0 2.0 0.30 0.79 0.79 99 1005.7
20260506070859 51 22 1.0 2.0 0.30 0.79 0.79 99 1005.7
20260506070707 51 22 1.0 2.0 0.27 0.74 0.74 99 1005.7
20260506070510 51 22 1.0 5.0 0.27 0.74 0.74 99 1005.7
20260506070315 51 0 1.0 5.0 0.25 0.72 0.72 99 1005.7
20260506070125 51 45 1.0 5.0 0.25 0.72 0.72 99 1005.7
20260506062348 51 22 2.0 7.0 0.09 0.55 0.55 99 1005.4
20260506062200 51 22 1.0 6.0 0.09 0.55 0.55 99 1005.4
20260506062015 51 22 1.0 3.0 0.05 0.50 0.50 99 1005.4
20260506061922 51 22 1.0 3.0 0.05 0.50 0.50 99 1005.5
20260506061835 51 22 1.0 3.0 0.05 0.50 0.50 99 1005.5
20260506061658 51 68 1.0 2.0 0.05 0.50 0.50 99 1005.4
20260506061513 51 45 1.0 5.0 0.03 0.49 0.49 99 1005.5
20260506061335 51 45 1.0 5.0 0.03 0.49 0.49 99 1005.4
20260506061155 51 45 1.0 5.0 0.03 0.49 0.49 99 1005.4
20260506061000 51 22 1.0 3.0 0.03 0.49 0.49 99 1005.4
20260506060825 51 22 1.0 3.0 0.03 0.49 0.49 99 1005.4
20260506060625 51 45 1.0 3.0 0.03 0.49 0.49 99 1005.4
20260506060445 51 45 1.0 2.0 0.03 0.47 0.47 99 1005.4
20260506060300 51 45 1.0 6.0 0.03 0.47 0.47 99 1005.3
20260506060118 51 22 2.0 6.0 0.03 0.47 0.47 99 1005.2
20260506051355 51 45 3.0 8.0 0.05 0.46 0.46 99 1005.5
20260506051208 51 0 2.0 8.0 0.05 0.46 0.46 99 1005.5
20260506051015 51 45 2.0 8.0 0.05 0.46 0.46 99 1005.6
20260506050815 51 45 2.0 4.0 0.05 0.46 0.46 99 1005.6
20260506050618 51 45 2.0 5.0 0.06 0.46 0.46 99 1005.5
20260506050427 51 0 2.0 4.0 0.06 0.46 0.46 99 1005.6
20260506050412 51 0 2.0 4.0 0.06 0.46 0.46 99 1005.6
20260506050235 51 45 2.0 4.0 0.06 0.46 0.46 99 1005.6
20260506045005 51 45 3.0 6.0 0.06 0.44 0.44 99 1005.6
20260506044815 51 22 4.0 6.0 0.06 0.44 0.44 99 1005.6
20260506044625 51 22 4.0 7.0 0.06 0.44 0.44 99 1005.7
20260506044435 51 45 4.0 8.0 0.06 0.44 0.44 99 1005.6
20260506044246 51 45 4.0 8.0 0.06 0.44 0.44 99 1005.6
20260506044050 51 22 4.0 8.0 0.06 0.44 0.44 99 1005.6
20260506043905 51 22 4.0 8.0 0.06 0.44 0.44 99 1005.6
20260506043715 51 338 4.0 5.0 0.08 0.44 0.44 99 1005.7
20260506043530 51 22 3.0 5.0 0.08 0.44 0.44 99 1005.6
20260506043353 51 68 3.0 5.0 0.08 0.44 0.44 99 1005.7
20260506043155 51 45 3.0 8.0 0.06 0.43 0.43 99 1005.7
20260506042938 51 22 3.0 8.0 0.06 0.43 0.43 99 1005.7
20260506042808 51 45 3.0 7.0 0.06 0.43 0.43 99 1005.7
20260506042630 51 22 3.0 7.0 0.08 0.43 0.43 99 1005.8
20260506042446 51 22 3.0 6.0 0.08 0.43 0.43 99 1005.7
20260506042310 51 45 3.0 7.0 0.08 0.43 0.43 99 1005.7
20260506042119 51 270 4.0 7.0 0.08 0.43 0.43 99 1005.8
20260506041930 51 22 4.0 8.0 0.08 0.41 0.41 99 1005.8
20260506041732 51 22 2.0 8.0 0.08 0.41 0.41 99 1005.8
20260506041554 51 45 2.0 8.0 0.08 0.41 0.41 99 1005.8
20260506041400 51 45 2.0 5.0 0.09 0.41 0.41 99 1005.9
20260506041217 51 45 2.0 5.0 0.09 0.41 0.41 99 1005.9
20260506041210 51 22 2.0 5.0 0.09 0.41 0.41 99 1005.9
20260506041025 51 22 2.0 5.0 0.09 0.41 0.41 99 1005.9
20260506040848 51 68 2.0 8.0 0.11 0.41 0.41 99 1005.8
20260506040710 51 68 2.0 8.0 0.11 0.41 0.41 99 1005.9
20260506040515 51 22 3.0 8.0 0.11 0.41 0.41 99 1005.9
20260506040315 51 45 2.0 6.0 0.13 0.41 0.41 99 1005.9
20260506040125 51 45 2.0 6.0 0.13 0.41 0.41 99 1005.9
20260506035930 51 45 2.0 6.0 0.13 0.41 0.41 99 1005.9
20260506035741 51 45 2.0 5.0 0.13 0.39 0.39 99 1006.0
20260506035600 51 45 2.0 5.0 0.13 0.39 0.39 99 1006.0
20260506035400 51 22 2.0 5.0 0.13 0.39 0.39 99 1006.0
20260506035200 51 22 2.0 5.0 0.14 0.39 0.39 99 1006.0
20260506035022 51 22 2.0 5.0 0.14 0.39 0.39 99 1006.0
20260506034845 51 248 2.0 5.0 0.14 0.39 0.39 99 1006.1
20260506034705 51 68 2.0 5.0 0.14 0.38 0.38 99 1006.0
20260506034512 51 22 2.0 5.0 0.14 0.38 0.38 99 1006.1
20260506034337 51 45 2.0 4.0 0.14 0.38 0.38 99 1006.1
20260506034140 51 45 2.0 5.0 0.16 0.38 0.38 99 1006.0
20260506034000 51 45 2.0 5.0 0.16 0.38 0.38 99 1006.1
20260506033805 51 22 2.0 6.0 0.16 0.38 0.38 99 1006.1
20260506033755 51 45 2.0 6.0 0.16 0.38 0.38 99 1006.1
20260506033625 51 68 2.0 6.0 0.16 0.38 0.38 99 1006.1
20260506033445 51 45 2.0 6.0 0.17 0.38 0.38 99 1006.1
20260506033310 51 292 2.0 5.0 0.17 0.38 0.38 99 1006.0
20260506033121 51 292 2.0 6.0 0.17 0.38 0.38 99 1006.1
20260506032944 51 292 2.0 6.0 0.17 0.36 0.36 99 1006.1
20260506032800 51 22 2.0 6.0 0.17 0.36 0.36 99 1006.1
20260506032600 51 45 2.0 5.0 0.17 0.36 0.36 99 1006.1
20260506032400 51 0 2.0 5.0 0.19 0.36 0.36 99 1006.1
20260506032217 51 45 2.0 5.0 0.19 0.36 0.36 99 1006.1
20260506032205 51 45 2.0 5.0 0.19 0.36 0.36 99 1006.1
20260506032025 51 68 2.0 5.0 0.19 0.36 0.36 99 1006.1
20260506031840 51 45 2.0 5.0 0.19 0.35 0.35 99 1006.2
20260506031702 51 45 2.0 5.0 0.19 0.35 0.35 99 1006.2
20260506031522 51 22 2.0 5.0 0.19 0.35 0.35 99 1006.2
20260506031345 51 45 1.0 5.0 0.19 0.33 0.33 99 1006.3
20260506031149 51 45 2.0 5.0 0.19 0.33 0.33 99 1006.3
20260506031010 51 45 2.0 5.0 0.19 0.33 0.33 99 1006.3
20260506030811 51 22 2.0 5.0 0.19 0.31 0.31 99 1006.3
20260506030647 51 22 2.0 7.0 0.19 0.31 0.31 99 1006.4
20260506030613 51 22 3.0 7.0 0.19 0.31 0.31 98 1006.4
20260506030430 51 22 3.0 7.0 0.19 0.31 0.31 98 1006.3
20260506030232 51 68 2.0 7.0 0.19 0.30 0.30 98 1006.4
20260506030035 51 45 2.0 6.0 0.19 0.30 0.30 98 1006.4
20260506025850 51 45 2.0 6.0 0.19 0.30 0.30 98 1006.4
20260506025700 51 22 2.0 6.0 0.17 0.28 0.28 98 1006.5
20260506025515 51 22 2.0 6.0 0.17 0.28 0.28 98 1006.4
20260506025322 51 22 2.0 6.0 0.16 0.27 0.27 98 1006.5
20260506025122 51 22 1.0 5.0 0.16 0.27 0.27 98 1006.6
20260506024957 51 68 1.0 5.0 0.16 0.27 0.27 98 1006.6
20260506024930 51 68 1.0 5.0 0.16 0.27 0.27 98 1006.6
20260506024748 51 68 2.0 5.0 0.16 0.25 0.25 98 1006.5
20260506024548 51 0 2.0 3.0 0.16 0.25 0.25 98 1006.6
20260506024405 51 22 2.0 3.0 0.16 0.25 0.25 98 1006.6
20260506024210 51 45 1.0 5.0 0.16 0.24 0.24 98 1006.6
20260506024010 51 45 2.0 5.0 0.16 0.24 0.24 98 1006.7
20260506023825 51 45 2.0 5.0 0.16 0.24 0.24 98 1006.6
20260506023650 51 45 2.0 5.0 0.14 0.22 0.22 98 1006.6
20260506023515 51 22 2.0 4.0 0.14 0.22 0.22 98 1006.7
20260506023437 51 22 2.0 5.0 0.14 0.22 0.22 98 1006.7
20260506023322 51 22 2.0 5.0 0.14 0.22 0.22 98 1006.7
20260506023140 51 22 2.0 5.0 0.14 0.20 0.20 98 1006.8
20260506022940 51 0 1.0 5.0 0.14 0.20 0.20 98 1006.8
20260506022742 51 68 1.0 5.0 0.14 0.20 0.20 98 1006.8
20260506022545 51 22 2.0 5.0 0.13 0.19 0.19 98 1006.8
20260506022405 51 22 2.0 5.0 0.13 0.19 0.19 98 1006.8
20260506022210 51 0 2.0 3.0 0.13 0.19 0.19 98 1006.8
20260506022015 51 22 1.0 6.0 0.13 0.17 0.17 98 1006.9
20260506021811 51 22 2.0 6.0 0.13 0.17 0.17 98 1006.9
20260506021615 51 45 2.0 6.0 0.11 0.16 0.16 98 1006.8
20260506021440 51 45 2.0 2.0 0.11 0.16 0.16 98 1006.8
20260506021254 51 45 2.0 8.0 0.11 0.16 0.16 98 1006.8
20260506021100 51 45 2.0 8.0 0.09 0.14 0.14 98 1006.9
20260506020918 51 22 2.0 8.0 0.09 0.14 0.14 98 1006.9
20260506020742 51 0 3.0 8.0 0.09 0.14 0.14 98 1006.9
20260506020548 51 68 2.0 6.0 0.09 0.13 0.13 98 1006.9
20260506020410 51 45 2.0 5.0 0.09 0.13 0.13 98 1006.9
20260506020230 51 338 1.0 6.0 0.09 0.13 0.13 98 1006.9
20260506020033 51 22 2.0 6.0 0.08 0.11 0.11 98 1006.9
20260506015917 51 22 2.0 6.0 0.08 0.11 0.11 98 1006.9
20260506015854 51 22 2.0 6.0 0.08 0.11 0.11 98 1006.9
20260506015710 51 45 2.0 8.0 0.08 0.11 0.11 98 1006.9
20260506015510 51 45 3.0 8.0 0.08 0.11 0.11 98 1006.9
20260506015318 51 45 3.0 8.0 0.08 0.11 0.11 98 1006.9
20260506015120 51 22 2.0 6.0 0.08 0.11 0.11 98 1006.9
20260506014935 51 45 2.0 5.0 0.08 0.11 0.11 98 1006.9
20260506014742 51 45 2.0 5.0 0.08 0.11 0.11 98 1006.9
20260506014541 51 22 2.0 5.0 0.08 0.11 0.11 98 1006.9
20260506014405 51 45 2.0 4.0 0.06 0.09 0.09 98 1006.9
20260506014220 51 45 2.0 5.0 0.06 0.09 0.09 98 1006.9
20260506014148 51 45 2.0 5.0 0.06 0.09 0.09 98 1006.8
20260506014040 51 45 3.0 5.0 0.06 0.09 0.09 98 1006.9
20260506013853 51 22 3.0 5.0 0.06 0.08 0.08 98 1006.9
20260506013700 51 22 3.0 6.0 0.06 0.08 0.08 98 1006.9
20260506013500 51 22 4.0 7.0 0.06 0.08 0.08 98 1006.9
20260506013315 51 22 4.0 7.0 0.06 0.08 0.08 98 1006.9
20260506013134 52 22 5.0 7.0 0.06 0.08 0.08 98 1006.9
20260506012942 52 45 5.0 7.0 0.05 0.06 0.06 98 1006.8
20260506012745 52 22 5.0 9.0 0.05 0.06 0.06 98 1007.0
20260506012602 52 68 4.0 9.0 0.05 0.06 0.06 98 1006.9
20260506012526 52 22 4.0 9.0 0.05 0.06 0.06 98 1006.9
20260506012405 52 45 3.0 9.0 0.05 0.06 0.06 98 1007.0
20260506012210 52 45 3.0 9.0 0.05 0.06 0.06 98 1007.0
20260506012030 52 45 3.0 9.0 0.05 0.06 0.06 98 1007.0
20260506011852 52 315 2.0 7.0 0.03 0.05 0.05 98 1007.0
20260506011705 52 22 3.0 7.0 0.03 0.05 0.05 98 1007.1
20260506011505 52 22 3.0 7.0 0.03 0.05 0.05 98 1007.2
20260506011322 52 248 3.0 7.0 0.05 0.05 0.05 98 1007.0
20260506011145 52 45 3.0 6.0 0.05 0.05 0.05 98 1007.1
20260506010955 52 22 3.0 6.0 0.05 0.05 0.05 98 1007.1
20260506010818 52 68 3.0 6.0 0.05 0.05 0.05 98 1007.2
20260506010625 52 45 3.0 8.0 0.05 0.05 0.05 98 1007.2
20260506010445 52 45 3.0 8.0 0.05 0.05 0.05 98 1007.3
20260506010255 52 22 3.0 8.0 0.03 0.03 0.03 98 1007.2
20260506010055 52 90 3.0 8.0 0.03 0.03 0.03 98 1007.2
20260506005857 52 45 3.0 8.0 0.03 0.03 0.03 98 1007.3
20260506005710 52 22 4.0 8.0 0.03 0.03 0.03 98 1007.3
20260506005527 52 22 3.0 7.0 0.03 0.03 0.03 98 1007.3
20260506005348 52 22 2.0 7.0 0.03 0.03 0.03 98 1007.4
20260506005210 52 45 2.0 7.0 0.03 0.03 0.03 98 1007.4
20260506005136 52 338 2.0 7.0 0.03 0.03 0.03 98 1007.3
20260506005010 52 22 2.0 7.0 0.03 0.03 0.03 98 1007.3
20260506004811 52 90 2.0 7.0 0.03 0.03 0.03 98 1007.4
20260506004620 52 22 2.0 5.0 0.03 0.03 0.03 98 1007.4
20260506004435 52 45 2.0 5.0 0.03 0.03 0.03 98 1007.4
20260506004248 52 45 2.0 7.0 0.03 0.03 0.03 98 1007.5
20260506004105 52 22 2.0 7.0 0.03 0.03 0.03 98 1007.5
20260506003925 52 68 2.0 5.0 0.03 0.03 0.03 98 1007.6
20260506003735 52 68 2.0 6.0 0.03 0.03 0.03 97 1007.6
20260506003550 52 22 2.0 6.0 0.02 0.02 0.02 97 1007.5
20260506003357 52 22 2.0 6.0 0.02 0.02 0.02 97 1007.6
20260506003215 52 45 2.0 5.0 0.02 0.02 0.02 97 1007.6
20260506003030 52 45 2.0 5.0 0.02 0.02 0.02 97 1007.6
20260506002840 52 45 2.0 5.0 0.02 0.02 0.02 97 1007.6
20260506002655 52 338 2.0 5.0 0.02 0.02 0.02 97 1007.6
20260506002517 52 45 2.0 6.0 0.02 0.02 0.02 97 1007.7
20260506002322 52 45 2.0 6.0 0.02 0.02 0.02 97 1007.6
20260506002130 52 22 2.0 6.0 0.02 0.02 0.02 97 1007.6
20260506001937 53 22 2.0 5.0 0.02 0.02 0.02 97 1007.7
20260506001845 53 22 1.0 5.0 0.02 0.02 0.02 97 1007.7
20260506001748 53 22 1.0 5.0 0.02 0.02 0.02 97 1007.7
20260506001605 53 45 1.0 5.0 0.02 0.02 0.02 97 1007.7
20260506001417 53 45 1.0 5.0 0.02 0.02 0.02 97 1007.6
20260506001234 53 45 1.0 5.0 0.02 0.02 0.02 97 1007.7
20260506001057 53 22 1.0 4.0 0.00 0.00 0.00 97 1007.8
20260506000910 53 45 2.0 4.0 0.00 0.00 0.00 97 1007.8
20260506000720 53 22 2.0 5.0 0.00 0.00 0.00 97 1007.9
20260506000535 53 45 2.0 6.0 0.00 0.00 0.00 97 1007.9
20260506000335 53 45 2.0 6.0 0.00 0.00 0.00 97 1007.9
20260506000304 53 45 2.0 6.0 0.00 0.00 0.00 97 1007.9
20260506000148 53 45 2.0 6.0 0.00 0.00 0.00 97 1007.9
20260505235950 53 45 2.0 5.0 0.00 0.00 0.00 97 1007.9
20260505235810 53 45 3.0 5.0 0.00 0.00 0.00 97 1007.9
20260505235620 53 45 3.0 6.0 0.00 0.00 0.00 97 1007.9
20260505235425 53 22 3.0 6.0 0.00 0.00 0.00 97 1007.9
20260505235245 53 45 3.0 6.0 0.00 0.00 0.00 96 1007.9
20260505235050 53 68 2.0 5.0 0.00 0.00 0.00 96 1008.1
20260505234905 53 22 2.0 5.0 0.00 0.00 0.00 96 1008.0
20260505234720 53 22 2.0 5.0 0.00 0.00 0.00 96 1008.0
20260505234540 53 45 2.0 5.0 0.00 0.00 0.00 96 1008.1
20260505234442 53 45 2.0 5.0 0.00 0.00 0.00 96 1008.1
20260505234350 53 45 2.0 7.0 0.00 0.00 0.00 96 1008.1
20260505234205 53 45 2.0 7.0 0.00 0.00 0.00 96 1008.0
20260505234030 53 22 2.0 7.0 0.00 0.00 0.00 96 1008.1
20260505233853 53 90 2.0 7.0 0.00 0.00 0.00 96 1008.0
20260505233715 53 338 2.0 5.0 0.00 0.00 0.00 96 1008.0
20260505233535 53 292 2.0 5.0 0.00 0.00 0.00 96 1008.0
20260505233337 53 0 2.0 5.0 0.00 0.00 0.00 96 1008.0
20260505233145 53 45 2.0 5.0 0.00 0.00 0.00 96 1008.1
20260505233000 53 45 3.0 7.0 0.00 0.00 0.00 96 1008.0
20260505232810 53 45 3.0 7.0 0.00 0.00 0.00 96 1008.1
20260505232717 53 338 3.0 7.0 0.00 0.00 0.00 96 1008.1
20260505232620 53 45 3.0 7.0 0.00 0.00 0.00 95 1008.1
20260505232425 53 45 2.0 5.0 0.00 0.00 0.00 95 1008.1
20260505232230 54 68 3.0 5.0 0.00 0.00 0.00 95 1008.1
20260505232048 54 68 4.0 5.0 0.00 0.00 0.00 95 1008.1
20260505231848 54 22 4.0 5.0 0.00 0.00 0.00 95 1008.1
20260505231655 54 22 3.0 8.0 0.00 0.00 0.00 95 1008.1
20260505231455 54 22 4.0 8.0 0.00 0.00 0.00 95 1008.1
20260505231310 54 45 3.0 8.0 0.00 0.00 0.00 95 1008.2
20260505231110 54 0 2.0 7.0 0.00 0.00 0.00 95 1008.3
20260505231046 54 338 2.0 5.0 0.00 0.00 0.00 94 1008.2
20260505230915 54 68 2.0 5.0 0.00 0.00 0.00 94 1008.2
20260505230715 54 22 2.0 4.0 0.00 0.00 0.00 94 1008.2
20260505230525 54 22 2.0 7.0 0.00 0.00 0.00 94 1008.2
20260505230325 54 90 1.0 2.0 0.00 0.00 0.00 94 1008.1
20260505230130 54 112 1.0 3.0 0.00 0.00 0.00 94 1008.2
20260505225934 54 22 1.0 3.0 0.00 0.00 0.00 93 1008.3
20260505225737 54 22 2.0 6.0 0.00 0.00 0.00 93 1008.2
20260505225557 54 22 2.0 6.0 0.00 0.00 0.00 93 1008.2
20260505225410 54 22 3.0 6.0 0.00 0.00 0.00 93 1008.3
20260505225317 54 22 3.0 7.0 0.00 0.00 0.00 93 1008.3
20260505225231 54 45 3.0 7.0 0.00 0.00 0.00 93 1008.2
20260505225053 54 45 4.0 8.0 0.00 0.00 0.00 93 1008.3
20260505224910 54 45 4.0 9.0 0.00 0.00 0.00 93 1008.3
20260505224715 54 45 4.0 9.0 0.00 0.00 0.00 92 1008.3
20260505224535 54 0 3.0 9.0 0.00 0.00 0.00 92 1008.3
20260505224337 54 22 3.0 7.0 0.00 0.00 0.00 92 1008.3
20260505224155 54 45 3.0 7.0 0.00 0.00 0.00 92 1008.4
20260505224015 54 22 2.0 5.0 0.00 0.00 0.00 92 1008.3
20260505223817 54 68 2.0 5.0 0.00 0.00 0.00 92 1008.3
20260505223655 54 45 2.0 4.0 0.00 0.00 0.00 92 1008.3
20260505223635 54 68 2.0 4.0 0.00 0.00 0.00 92 1008.4
20260505223457 54 68 3.0 5.0 0.00 0.00 0.00 92 1008.4
20260505223305 54 338 2.0 5.0 0.00 0.00 0.00 92 1008.5
20260505223115 54 315 2.0 6.0 0.00 0.00 0.00 92 1008.5
20260505222937 54 68 2.0 6.0 0.00 0.00 0.00 92 1008.5
20260505222739 54 22 2.0 6.0 0.00 0.00 0.00 92 1008.4
20260505222548 54 90 2.0 5.0 0.00 0.00 0.00 92 1008.5
20260505222355 54 22 2.0 5.0 0.00 0.00 0.00 92 1008.5
20260505222215 54 22 2.0 5.0 0.00 0.00 0.00 92 1008.5
20260505222015 54 68 2.0 4.0 0.00 0.00 0.00 92 1008.4
20260505221855 54 68 2.0 5.0 0.00 0.00 0.00 92 1008.4
20260505221817 54 68 2.0 5.0 0.00 0.00 0.00 92 1008.5
20260505221625 54 68 3.0 5.0 0.00 0.00 0.00 92 1008.4
20260505221425 54 45 3.0 5.0 0.00 0.00 0.00 92 1008.5
20260505221245 54 22 3.0 6.0 0.00 0.00 0.00 92 1008.5
20260505221053 54 90 3.0 5.0 0.00 0.00 0.00 92 1008.5
20260505220904 54 45 4.0 7.0 0.00 0.00 0.00 92 1008.5